Regional Weather Roundup
Issued by NWS

Home | Current Version | Previous Version | Text Only | Print | Product List | Glossary Off
Versions: 1 2 3 4 5 6 7 8 9 10 11 12 13 14 15 16 17 18 19 20 21 22 23 24 25 26 27 28 29 30 31 32 33 34 35 36 37 38 39 40 41 42 43 44 45 46 47 48 49 50

000
ASUS43 KFSD 052002
RWRSD

WEATHER ROUNDUP FOR SOUTH DAKOTA
NATIONAL WEATHER SERVICE SIOUX FALLS SD
200 PM CST FRI FEB 05 2016

NOTE: "FAIR" INDICATES FEW OR NO CLOUDS BELOW 12,000 FEET WITH NO
SIGNIFICANT WEATHER AND/OR OBSTRUCTIONS TO VISIBILITY.


SDZ001>005-009-010-012>017-052100-
NORTHWEST AND NORTH CENTRAL SOUTH DAKOTA

CITY           SKY/WX    TMP DP  RH WIND       PRES   REMARKS
BUFFALO          N/A     42  19  39 NW20      30.10F
FAITH            N/A     38  22  52 W18       30.17F
MOBRIDGE       SUNNY     39  24  55 NW13      30.14F
$$

SDZ012>016-024>037-041>051-057-063-072>074-052100-
SOUTHWEST AND SOUTH CENTRAL SOUTH DAKOTA

CITY           SKY/WX    TMP DP  RH WIND       PRES   REMARKS
RAPID CTY ARPT SUNNY     38  25  59 N15       30.20F
PIERRE         PTSUNNY   38  29  70 NW20      30.18S
CUSTER         MOSUNNY   33   9  36 NW10G22   30.15F WCI  25
ELLSWORTH AFB  SUNNY     38  24  59 N14       30.19S
PHILIP         SUNNY     39  26  59 NW16      30.22S
PINE RIDGE     CLOUDY    36  25  64 W10       30.23S
WINNER         CLOUDY    35  30  82 NW18      30.18S WCI  24
$$

SDZ004>011-016>023-039-040-052100-
NORTHEAST SOUTH DAKOTA

CITY           SKY/WX    TMP DP  RH WIND       PRES   REMARKS
ABERDEEN       CLOUDY    41  29  62 N8        30.14F
WATERTOWN      LGT SNOW  27  22  81 W8        30.11F WCI  19
BROOKINGS      CLOUDY    29  21  72 SW9       30.13S WCI  20
SISSETON         N/A     33  26  75 N8        30.12F WCI  26
$$

SDZ017-020-022-023-036>040-048>070-052100-
SOUTHEAST SOUTH DAKOTA

CITY           SKY/WX    TMP DP  RH WIND       PRES   REMARKS
SIOUX FALLS    CLOUDY    29  24  82 SW12      30.15F WCI  19
HURON          LGT SNOW  31  27  85 NW12      30.16S FOG     WCI  22
CHAMBERLAIN    LGT SNOW  33  32  95 NW14      30.17S WCI  24
MITCHELL       CLOUDY    33  26  75 NW9       30.16S WCI  25
YANKTON        MOSUNNY   34  27  75 S7        30.15F WCI  28
$$

ABBREVIATIONS USED IN REMARKS
   TC - TEMPERATURE IN CELSIUS
  WCI - WIND CHILL INDEX
   HX - HEAT INDEX
  VSB - VISIBILITY




USA.gov is the U.S. government's official web portal to all federal, state and local government web resources and services.